Weather in Pokrovskoye

Russia / Ivanovo Oblast     56°36′08″N   41°21′53″E
temp.,
°C
wind,
m/s
gust,
m/s
humid.,
%
clouds,
%
prec.,
mm/h
press.,
hPa
HPBL,
m
6 august, fri
fri600:00+15nne368199 0.3 1016114
03:00+15e3768100 0.3 1014194
06:00+15ese3107890 0.3 1014280
09:00+20s4766100 0.5 1014509
12:00+22s4661100 0.1 1014841
15:00+18ese3583100 0.2 1014228
18:00+16ese3797100 4.2 1014242
21:00+16e4998100 7.2 1014321
7 august, sat
sat700:00+16ene41396100 0.2 1013421
03:00+15e5119794 0.3 1012352
06:00+15e489636 0.0 1012272
09:00+20se4576100 0.2 1012459
12:00+22se357595 1.6 1012525
15:00+28se264446 1.7 10121256
18:00+27ese3650100 0.0 1011208
21:00+20s31062100 0.0 1013218
8 august, sun
sun800:00+20ese3964100 0.0 1014198
03:00+20sse41462100 0.0 1014367
06:00+20se3116080 0.0 1014333
09:00+22sse3954100 0.0 1014340
12:00+29ssw573388 0.0 10151225
15:00+27wsw4642100 0.0 1015461
18:00+21wsw2462100 0.0 101693
21:00+21s1177100 0.0 101711
9 august, mon
mon900:00+20wsw227318 0.0 101829
03:00+17nw11773 0.0 101811
06:00+18w11781 0.0 101932
09:00+24w23565 0.0 1019553
12:00+28wsw354332 0.0 10191550
15:00+29w45360 0.0 10181949
18:00+27w25450 0.0 1018327
21:00+21nnw2260100 0.0 101916
10 august, tue
tue1000:00+20ne1167100 0.0 101911
03:00+19sse117085 0.0 102011
06:00+19w1167100 0.0 102013
09:00+20nne2374100 0.0 101970
12:00+23ne116396 0.0 1019159
15:00+27sse0146100 0.0 10191072
18:00+19wnw3893100 0.6 1020233
21:00+18nne2291100 1.4 101951